Location: Newark
(2.5000°N, 112.5000°E)
Time: 11:07:13
(UTC+00:00)

Hubble Space Telescope - Visible Passes

Search period start: 14 November 2019 00:00
Search period end: 24 November 2019 00:00
Orbit: 536 x 540 km, 28.5° (Epoch: 13 November)

Date Brightness Start Highest point End Pass type
(mag) Time Alt. Az. Time Alt. Az. Time Alt. Az.
14 Nov 2.4 10:54:27 10° W 10:57:55 26° NNW 11:01:23 10° NNE visible
14 Nov 0.7 21:08:59 33° WNW 21:10:44 72° SSW 21:14:52 10° SE visible
15 Nov 2.8 10:44:24 10° WNW 10:47:23 19° NNW 10:50:22 10° NNE visible
15 Nov 1.2 20:59:12 40° WSW 21:00:10 49° SSW 21:04:10 10° SE visible
16 Nov 3.2 10:34:35 10° WNW 10:36:52 14° NNW 10:39:08 10° N visible
16 Nov 1.7 20:49:22 34° SW 20:49:34 34° SSW 20:53:21 10° SE visible
17 Nov 2.4 20:39:31 24° SSW 20:39:31 24° SSW 20:42:25 10° SSE visible
18 Nov 3.0 20:29:36 16° S 20:29:36 16° S 20:31:19 10° SSE visible
19 Nov 3.5 20:19:39 11° S 20:19:39 11° S 20:19:55 10° S visible
